User: anonymous   Login
Location: Unspecified
(0.0000°N, 0.0000°E)
Time: 12:48:52
(UTC+00:00)
Language:

Skynet 4B - Orbit

View from above orbital plane
View from above orbital plane
View from above satellite
View from above satellite

Ground track
Ground track

The orbit data is extracted from the following two-line orbital elements,

1 19687U 88109A   17262.40315937  .00000066  00000-0  00000+0 0  9998
2 19687  15.4077   4.4013 0008358 223.6669 136.2856  0.99675705 86404
Epoch (UTC): 19 September 2017 09:40:32
Eccentricity: 0.0008358
inclination: 15.4077°
perigee height: 35919 km
apogee height: 35989 km
right ascension of ascending node: 4.4013°
argument of perigee: 223.6669°
revolutions per day: 0.99675705
mean anomaly at epoch: 136.2856°
orbit number at epoch: 8640

The dashed part of the orbit path shows where the satellite is in the earth's shadow,  

DLR